Theta_e
325 324 323 322 321 321 321 320 320 320 319 318 318 318 317 316 315 314 312 311 310 308 307 306 305 304 302 300 300 300 299 299 299 300 300 300 300 300 300 299 298 296 295 295 295 294 293 293 293 292 291 291 290 289 288 287 287 287 287 286 286 285 285 285 284 283 282 282 282
323 323 323 321 321 321 320 320 320 320 319 319 318 318 317 316 314 314 313 312 311 309 308 306 305 303 301 300 300 299 299 299 299 300 300 300 300 300 299 298 297 296 295 295 295 294 293 292 292 291 291 290 290 289 288 287 288 287 286 285 285 285 285 285 284 283 282 282 282
322 322 321 321 321 320 320 319 319 319 319 318 318 318 317 316 314 313 313 312 311 310 308 305 303 302 301 300 300 301 300 298 299 300 300 299 299 298 298 297 297 296 296 295 295 294 293 292 292 291 291 290 289 289 288 287 288 288 286 285 285 285 286 286 284 282 282 282 282
321 321 320 320 319 319 319 320 319 319 319 319 318 317 316 316 314 313 312 310 310 309 308 305 302 301 301 302 301 301 301 300 300 299 299 298 297 297 297 296 296 296 295 295 294 293 292 292 292 291 290 289 289 289 288 287 288 288 287 285 285 285 285 285 283 283 283 283 281
320 320 320 319 319 319 320 320 320 319 319 319 317 316 316 315 314 312 311 309 309 308 307 305 302 301 301 301 301 300 299 300 300 299 298 297 297 296 296 296 296 295 295 294 294 293 292 293 292 291 290 290 290 289 288 287 288 287 286 285 285 285 285 285 284 283 283 283 281
318 319 319 320 319 320 320 320 320 319 319 318 316 316 315 315 314 312 311 309 308 307 306 304 303 302 301 301 299 298 298 299 299 298 297 296 296 296 295 296 296 295 294 294 293 293 292 292 291 290 290 289 288 288 288 288 287 286 286 285 285 284 284 284 284 283 283 283 282
318 318 318 319 319 319 320 320 319 318 317 316 315 315 315 314 314 312 311 309 307 306 305 305 303 302 301 300 299 298 298 298 298 297 297 296 296 295 295 295 295 294 294 294 293 293 292 292 291 290 290 290 288 287 287 288 287 286 286 285 285 284 284 283 283 283 283 283 282
317 317 318 318 318 318 318 317 316 315 315 315 314 314 314 313 312 311 310 308 306 306 305 304 302 301 300 299 298 298 298 297 297 296 296 295 295 295 294 294 294 294 294 293 293 292 292 291 290 290 289 289 288 287 286 286 286 286 285 284 284 283 282 282 283 283 283 283 282
316 316 317 317 317 316 315 313 312 312 313 313 312 312 312 312 311 310 308 306 305 305 304 302 300 299 298 298 297 297 297 296 296 295 295 295 294 294 294 294 293 293 293 292 292 291 291 291 290 290 290 289 288 286 285 286 286 285 285 284 283 283 282 281 282 282 282 282 282
315 315 315 315 314 312 311 309 309 309 309 310 310 311 312 311 310 308 306 305 304 303 302 301 299 298 297 297 297 296 296 296 295 295 294 294 294 293 293 293 293 292 292 291 291 291 290 290 290 290 289 289 287 286 285 285 285 285 284 284 284 283 282 281 282 282 282 282 282
314 314 314 313 311 310 309 307 307 307 308 309 309 310 310 309 307 306 305 304 303 301 300 299 298 297 297 297 296 296 296 296 295 295 294 294 294 293 293 292 292 291 291 291 291 291 290 289 289 288 288 288 287 285 285 285 285 284 284 283 283 283 283 282 282 282 282 282 281
312 312 311 310 309 308 307 306 306 307 307 308 309 309 307 306 305 304 304 302 301 300 299 298 298 297 297 297 296 296 296 295 295 295 294 293 293 293 292 291 291 291 290 290 290 290 289 289 288 287 287 287 286 285 285 284 285 284 283 282 283 283 283 282 281 281 281 281 281
310 309 309 307 307 306 306 306 306 307 307 308 307 307 306 304 304 303 302 301 300 299 298 298 298 297 297 297 297 296 296 295 295 294 294 293 293 292 292 291 290 290 290 290 290 290 289 288 288 287 286 286 285 285 285 284 284 284 283 283 283 283 282 282 281 281 281 281 282
307 307 306 305 305 305 306 305 306 307 306 307 306 305 304 303 303 303 302 300 299 299 298 298 297 297 297 297 296 296 295 295 294 294 293 293 292 291 291 290 290 290 290 290 290 289 289 288 288 287 286 285 285 284 284 284 285 284 284 283 283 283 282 282 281 281 281 281 282
305 305 304 304 304 305 305 305 306 306 305 305 304 303 303 302 302 302 301 299 299 298 298 297 297 297 297 296 296 296 295 294 294 293 293 292 291 291 290 289 289 289 289 289 289 289 289 288 288 287 286 285 284 284 284 284 284 284 284 284 283 283 283 282 281 281 281 281 281
303 303 303 303 304 304 304 304 305 304 304 303 302 302 302 302 302 301 300 299 298 298 297 297 297 297 296 296 295 295 294 294 293 293 292 291 290 290 290 289 289 289 289 289 289 289 288 288 287 287 286 285 284 284 284 284 284 284 283 283 283 283 283 282 281 281 281 281 281
302 302 302 303 303 303 303 304 304 304 303 302 302 301 302 301 301 301 300 299 298 298 297 297 297 296 296 295 295 295 294 293 293 292 291 290 290 290 289 289 289 289 289 289 288 288 287 287 286 286 285 285 284 284 284 283 283 283 282 282 282 282 282 283 282 281 280 280 281
301 301 301 302 302 302 303 303 303 302 302 301 301 301 301 301 301 300 299 299 298 297 297 297 297 296 295 295 294 294 294 293 292 291 290 290 290 289 289 289 289 289 289 288 287 287 286 285 285 285 285 284 284 284 283 283 283 282 282 282 281 281 281 282 281 280 280 280 281
300 300 301 302 302 302 303 303 302 302 301 301 301 301 301 301 300 299 299 298 298 297 297 296 296 295 295 294 294 294 293 292 291 291 290 290 290 290 289 289 289 289 288 287 286 286 285 285 285 285 284 284 284 284 283 283 282 282 282 281 281 281 281 280 280 280 280 280 281
299 300 301 303 303 303 303 302 302 302 301 301 301 301 301 301 300 299 298 297 297 297 296 295 295 294 294 293 293 292 292 291 291 290 290 290 289 289 289 288 288 288 287 287 286 285 285 285 285 285 285 285 284 284 284 283 283 282 282 282 282 281 281 280 280 280 280 280 280
300 301 302 303 303 302 302 302 302 302 302 301 301 301 300 299 299 298 297 297 296 296 295 294 293 293 292 292 291 291 291 291 291 290 290 289 289 289 288 288 288 287 287 287 286 286 286 286 286 286 286 286 285 284 284 284 283 283 282 282 282 281 281 281 280 280 280 280 280
300 302 303 303 303 302 302 302 301 301 301 300 300 299 298 298 297 297 297 296 295 295 294 293 293 292 292 292 291 291 291 291 290 290 290 289 289 289 289 288 288 288 288 287 287 287 287 287 287 286 286 286 285 285 284 284 283 283 282 282 282 282 281 281 281 280 280 280 280
302 302 302 302 302 302 301 301 301 300 300 299 298 297 296 296 296 296 295 295 294 293 293 292 292 292 292 291 291 291 290 290 290 289 289 289 289 289 289 289 289 288 288 288 288 287 287 287 286 286 286 285 285 285 284 284 284 283 283 283 282 282 282 281 281 281 280 280 280
302 301 301 301 301 301 300 300 299 299 298 297 296 295 295 295 295 295 294 293 293 292 292 292 292 291 291 291 290 290 289 289 289 288 289 289 289 289 289 289 289 288 288 288 289 288 288 287 286 286 286 285 285 285 284 284 284 284 283 283 283 283 282 282 281 281 281 281 280
300 300 300 300 299 299 299 299 298 297 296 295 295 295 295 294 294 294 293 292 292 291 291 291 291 290 290 290 289 289 289 289 288 288 288 289 289 289 289 289 289 289 289 290 291 292 291 290 288 287 286 286 285 285 285 284 284 284 284 284 283 283 283 282 282 281 281 281 280
298 298 298 298 298 298 297 296 296 295 295 294 294 294 294 293 293 292 292 291 291 291 290 290 290 290 290 289 289 289 289 289 289 288 288 288 288 288 289 289 289 290 291 292 294 294 293 293 291 289 287 286 286 286 285 284 284 284 284 283 283 283 282 282 281 281 281 280 280
297 297 297 297 296 296 295 295 294 294 294 294 293 293 293 292 292 291 290 290 290 290 290 290 290 290 290 289 289 288 288 288 288 288 288 288 288 288 289 289 290 291 292 294 294 295 294 294 293 291 289 287 286 286 285 284 284 283 283 283 282 282 282 281 281 281 280 280 279
295 295 295 295 294 294 294 294 293 293 293 293 292 292 292 291 291 290 290 289 289 289 289 289 289 289 289 288 288 288 288 288 288 288 288 288 289 289 290 290 291 292 294 295 295 295 294 294 293 292 290 287 286 285 285 284 284 283 283 282 282 281 281 281 280 280 280 279 279
294 293 293 293 293 293 293 293 292 292 292 292 292 291 291 290 290 290 289 289 289 289 289 289 289 288 288 287 287 287 287 287 287 288 288 288 289 290 291 291 292 294 295 296 295 295 295 294 293 292 290 288 286 285 284 284 283 283 282 282 281 281 280 280 280 279 279 279 279
292 292 292 292 292 292 292 292 291 291 291 291 291 291 290 290 289 289 289 288 288 288 288 288 288 287 287 286 286 287 287 287 287 288 288 289 289 290 291 292 292 294 295 295 295 295 294 294 293 291 290 288 286 284 284 283 282 282 281 281 280 280 280 279 279 279 278 278 278
292 292 291 291 291 291 291 291 290 290 290 290 290 289 289 289 288 288 288 288 288 288 288 288 287 287 287 287 287 287 287 287 288 288 288 289 290 290 290 291 292 293 294 295 294 294 293 293 292 291 290 288 286 284 283 282 282 281 281 280 280 279 279 279 278 278 277 277 277
291 291 290 290 290 290 289 289 289 289 289 289 289 288 288 288 288 288 288 288 288 288 288 287 287 287 287 287 287 287 287 287 287 288 288 289 289 289 289 290 291 292 293 294 293 293 292 292 291 290 289 288 286 284 282 282 281 280 280 279 279 279 278 278 277 277 276 276 276
290 290 289 289 289 289 289 289 289 289 288 288 288 288 287 287 287 288 288 288 288 287 287 287 287 286 287 287 287 287 287 287 288 288 288 289 289 289 289 290 290 292 293 293 293 292 292 292 291 290 289 288 285 283 281 281 280 280 279 279 278 277 277 276 276 276 275 274 274
289 289 288 288 288 288 288 288 288 288 288 288 288 287 287 287 287 287 287 288 288 287 287 287 287 287 287 287 287 287 287 287 287 288 288 288 288 288 288 288 289 291 293 293 292 292 292 291 291 290 289 287 284 282 280 280 279 279 278 277 277 276 276 275 275 274 274 273 272
288 288 288 287 287 288 288 288 288 288 287 287 287 287 287 287 287 287 287 288 288 288 287 287 287 287 287 287 287 287 287 287 287 287 287 287 287 287 287 287 288 290 292 292 292 292 292 291 291 289 288 286 282 280 279 279 278 277 276 276 276 276 275 274 274 273 273 272 272
288 288 287 287 287 287 287 287 287 287 287 287 287 287 287 287 287 288 288 288 288 287 287 287 287 287 287 287 287 287 287 287 287 287 287 287 287 286 286 286 287 290 292 292 292 292 291 291 290 288 286 283 280 279 278 277 276 276 276 276 276 275 274 273 273 273 272 272 272
288 288 287 287 287 287 287 287 287 287 287 286 286 287 287 287 287 288 288 288 288 287 287 287 287 287 287 287 287 287 287 287 287 286 286 287 286 286 286 286 286 289 291 292 292 291 291 291 289 288 285 281 278 277 277 276 276 275 275 275 274 273 273 272 272 272 272 272 273
288 288 288 287 287 287 287 287 287 286 286 286 287 287 287 287 287 287 288 288 287 287 286 286 286 287 287 287 287 287 287 287 287 287 286 286 286 286 286 285 285 286 289 292 291 291 291 290 289 287 284 280 278 277 276 276 275 274 274 274 273 272 272 271 271 271 272 273 278
288 288 288 287 287 287 287 287 286 286 286 286 286 286 286 287 287 287 287 288 287 287 287 286 286 287 287 288 287 287 287 287 287 287 286 286 286 286 286 285 283 284 286 290 291 290 290 290 289 288 285 281 278 276 276 275 274 273 273 273 272 272 272 271 271 271 271 273 281
288 288 288 287 287 287 286 286 286 286 286 286 286 286 286 286 287 287 287 287 287 287 287 287 287 287 288 288 287 286 285 285 285 285 285 285 286 286 286 283 281 282 284 289 290 290 290 290 289 288 285 280 276 275 275 274 274 273 272 271 271 271 272 271 271 270 271 272 276
287 287 286 286 286 286 286 285 285 285 286 286 286 286 286 287 287 287 287 287 287 287 287 287 287 287 287 287 286 285 284 283 283 283 284 284 285 285 284 281 279 279 280 285 288 289 289 289 289 288 285 280 275 274 274 274 274 273 273 271 270 270 271 271 271 271 271 271 271
Wind_Speed
8 8 8 8 8 8 8 7 7 7 7 7 8 8 8 8 8 8 8 7 6 5 4 4 4 4 5 7 9 9 9 9 10 9 9 8 8 9 10 11 13 14 13 12 9 7 6 7 6 5 5 4 4 4 4 3 4 4 5 5 5 5 5 7 7 6 5 3 2
9 9 9 9 8 8 7 7 7 7 7 7 7 8 8 7 7 7 7 7 7 6 5 4 4 4 4 6 7 7 7 8 9 8 8 7 7 7 8 9 12 14 15 14 11 8 6 6 6 6 5 4 4 4 4 3 4 5 6 6 5 4 4 5 6 6 5 4 2
9 9 9 9 9 9 8 8 8 9 9 9 7 7 7 6 6 6 6 6 6 7 6 5 4 4 4 5 5 5 5 6 7 7 7 7 7 7 8 8 11 13 15 14 12 9 7 7 6 6 6 5 5 5 4 3 4 5 6 6 4 4 4 4 4 4 4 3 2
9 9 10 10 11 12 11 10 10 11 11 9 8 7 6 6 5 5 5 5 6 6 7 7 7 6 5 5 5 5 5 7 8 8 8 8 8 8 8 8 10 11 13 13 12 10 9 7 5 5 6 7 6 6 4 4 4 4 4 4 4 4 4 3 3 3 3 3 2
9 10 10 11 13 13 13 12 12 12 11 9 7 7 7 6 5 5 5 6 6 6 7 10 10 9 8 7 7 7 7 8 9 9 8 9 9 9 8 8 8 9 10 11 11 11 10 7 5 4 5 6 5 5 5 5 5 5 4 3 3 3 3 4 3 3 3 3 2
10 11 11 11 13 13 12 12 13 12 10 8 8 8 8 7 7 7 7 7 6 7 8 11 11 11 10 9 8 8 8 8 8 8 9 10 10 10 9 9 8 8 8 9 10 10 10 8 5 4 4 4 4 5 5 7 6 5 4 3 3 3 3 4 3 3 3 4 3
11 12 12 12 13 13 12 11 10 9 8 7 9 10 10 9 9 9 9 8 7 7 8 9 10 11 11 11 10 9 8 8 8 8 9 9 10 10 10 9 8 7 7 7 8 9 8 8 6 5 5 5 4 5 6 6 6 6 5 4 3 2 3 4 3 3 4 5 5
11 12 13 13 13 13 12 10 8 8 7 7 10 11 12 11 11 10 10 9 8 8 8 8 11 12 12 12 12 11 11 10 9 9 9 9 10 11 11 10 9 9 8 8 8 8 8 6 5 5 5 5 4 4 5 7 7 7 6 5 3 2 2 3 3 3 5 6 5
9 10 11 11 11 11 10 8 7 8 8 8 10 11 11 11 11 11 10 9 8 8 9 9 12 13 13 13 13 13 12 12 12 11 10 10 11 11 11 11 11 10 9 8 8 9 8 6 5 5 5 5 5 5 6 7 8 7 6 4 3 2 2 2 3 4 5 6 5
10 10 10 10 9 8 7 6 7 8 8 8 9 10 11 11 11 11 10 9 9 9 9 10 12 13 13 13 13 12 12 13 13 13 13 12 13 13 12 11 12 11 10 9 9 9 8 7 6 6 6 5 6 6 6 7 8 7 5 4 4 4 3 3 4 4 5 5 4
11 11 10 9 8 8 7 7 7 7 8 8 9 10 10 10 10 10 9 9 9 10 10 11 13 14 14 13 12 12 12 12 13 13 14 14 14 14 13 12 13 12 11 10 9 8 8 7 8 8 8 7 7 7 6 6 7 6 5 3 4 4 4 3 3 4 4 4 4
10 9 8 8 8 8 8 7 6 7 7 8 9 10 10 10 10 10 10 10 10 10 10 12 13 13 13 11 12 12 12 13 13 14 14 15 15 14 14 13 12 12 11 10 9 8 8 8 9 9 9 8 7 6 5 6 6 6 5 3 3 4 4 4 3 3 3 3 3
7 7 7 7 8 8 8 8 7 7 8 9 9 9 9 9 10 11 11 11 11 10 10 11 12 12 12 11 11 12 12 13 14 13 13 14 14 14 14 12 12 11 11 10 9 8 8 9 10 10 10 8 6 5 5 6 6 6 5 4 3 3 3 4 3 3 3 3 3
6 6 7 7 8 8 8 8 7 7 7 9 9 9 9 9 10 10 11 11 11 10 10 10 10 10 10 11 11 12 12 12 13 14 13 13 13 13 13 12 11 11 10 9 9 9 10 10 10 10 10 8 7 6 5 6 6 6 5 5 4 4 4 4 4 4 3 3 2
6 6 7 7 8 8 8 8 7 7 7 8 8 8 8 8 9 9 10 10 10 10 9 9 9 9 10 11 12 12 13 12 13 14 13 13 12 12 12 11 11 10 10 9 9 10 10 11 10 10 9 8 7 6 5 5 5 5 5 4 4 4 4 4 4 4 3 3 2
6 6 6 7 7 7 7 7 6 7 7 8 8 9 9 8 8 9 10 10 9 9 9 10 9 9 10 11 12 12 12 12 13 13 13 12 12 12 11 11 11 10 10 11 10 10 10 9 9 9 8 7 6 6 5 5 5 4 4 3 3 3 3 4 4 3 3 3 3
6 6 6 7 7 8 7 7 7 7 8 8 9 9 9 9 9 9 10 10 9 9 10 10 10 10 10 10 11 11 12 12 12 12 13 12 12 12 11 11 11 11 12 12 11 10 9 8 7 7 7 7 6 6 6 5 5 4 4 3 3 3 3 3 3 3 3 3 4
6 6 6 7 7 8 8 8 8 8 9 10 9 9 9 9 9 10 10 10 10 11 12 11 10 10 10 10 10 11 11 11 12 12 12 12 12 12 11 11 11 12 12 12 11 10 9 8 7 6 6 7 6 6 6 5 5 4 4 4 4 3 2 2 3 3 3 4 4
6 6 6 7 8 8 8 8 9 9 10 10 10 9 9 10 10 10 10 10 11 12 12 12 11 11 11 12 11 11 11 11 13 13 12 12 11 11 11 12 12 12 12 11 10 9 8 8 7 7 7 7 7 6 6 5 5 4 4 4 3 2 2 1 2 2 3 3 3
6 6 7 7 8 8 8 9 9 10 10 9 10 10 10 11 11 11 11 11 11 12 12 12 11 11 11 11 12 11 11 10 12 12 12 12 12 12 12 12 12 12 11 11 10 9 9 8 8 8 8 8 7 7 6 6 5 5 4 3 3 2 2 1 1 1 1 2 2
6 7 7 8 8 9 9 9 9 10 10 10 10 10 10 11 11 11 11 11 11 11 11 11 11 11 11 11 11 11 10 9 11 12 12 12 12 12 12 12 12 12 11 10 10 9 9 8 8 8 8 8 7 7 6 6 5 5 4 3 3 2 2 2 1 0 1 1 1
6 6 7 8 9 9 9 9 9 10 10 10 10 10 10 10 10 10 10 10 10 10 10 10 10 11 11 10 10 10 10 9 11 11 12 12 12 12 11 11 12 12 11 10 10 9 9 8 8 8 8 7 7 6 6 6 5 5 4 4 4 3 2 2 1 1 1 1 2
6 6 7 8 9 10 10 10 10 10 10 10 10 10 10 11 11 11 11 11 11 10 10 9 10 10 10 10 10 10 10 11 11 11 11 12 12 12 12 11 12 12 11 9 8 8 8 7 7 7 7 6 6 6 6 5 5 5 5 5 4 3 2 1 1 1 1 2 2
6 6 6 7 8 10 10 10 10 10 10 10 11 11 11 11 11 11 12 12 12 11 11 9 9 10 10 10 11 11 11 12 12 12 12 12 12 12 12 11 11 10 8 7 7 8 7 7 6 6 6 6 6 6 6 6 6 5 5 5 4 3 2 2 2 2 2 2 2
7 7 7 7 8 9 9 10 10 10 10 11 11 11 11 12 12 12 12 13 12 12 12 11 10 10 10 10 11 11 12 13 13 13 13 12 12 12 11 9 8 7 7 8 11 12 11 9 7 6 6 6 6 6 6 6 6 5 5 4 3 2 2 3 3 3 2 2 2
8 8 8 8 8 9 9 10 10 11 11 11 11 12 12 12 12 12 13 13 13 12 12 12 11 10 10 10 11 11 11 11 12 12 13 12 12 11 10 8 7 6 7 10 14 15 14 13 11 9 7 6 6 6 5 5 5 5 4 3 2 1 1 2 3 3 3 3 2
9 9 9 9 9 9 10 10 10 11 11 11 12 12 12 12 12 12 13 13 13 12 12 11 11 11 11 10 12 12 11 10 11 12 12 13 12 11 10 8 7 6 7 12 14 15 14 14 13 12 9 6 6 5 5 4 4 4 3 2 1 0 1 1 3 3 3 3 3
9 9 10 10 10 10 10 10 11 11 11 12 12 12 12 13 13 13 13 13 12 12 11 10 10 9 9 9 10 11 11 11 10 11 11 12 12 11 10 8 6 7 10 13 14 14 13 13 13 12 11 8 6 5 5 4 3 2 1 1 0 0 1 1 2 2 3 3 3
10 10 10 11 11 10 10 10 11 11 11 12 12 12 13 13 13 13 12 12 12 11 9 8 8 8 8 9 10 11 11 11 10 10 10 11 11 10 9 8 8 9 12 14 13 13 13 13 13 12 11 9 6 4 3 3 2 2 1 1 1 1 1 1 2 2 2 2 3
11 11 11 11 11 10 10 10 10 10 11 11 12 12 12 12 12 12 12 12 11 10 9 8 9 9 9 10 10 10 10 9 9 10 11 12 11 10 9 9 8 9 12 14 13 13 12 12 12 12 12 10 7 4 3 2 2 2 2 2 2 2 2 1 2 2 2 2 2
11 11 11 11 11 11 10 10 10 10 10 10 11 12 12 12 11 11 11 10 10 11 11 11 11 11 11 10 10 10 10 10 10 10 10 11 11 10 9 8 8 9 11 13 12 12 11 11 11 11 11 10 7 4 3 3 3 2 2 2 2 2 2 1 2 2 2 2 2
11 11 11 11 11 11 10 10 10 10 10 11 11 11 12 11 11 10 10 10 11 12 12 12 13 12 12 11 11 11 11 11 10 10 10 10 10 9 8 8 7 8 10 12 12 11 10 10 10 10 10 9 7 5 4 3 3 2 2 2 2 2 2 1 1 1 1 1 1
12 12 11 11 11 11 10 10 10 10 10 11 12 12 12 11 11 11 11 10 11 11 12 12 13 13 12 12 12 11 11 11 10 10 10 9 9 8 8 7 6 8 10 11 10 10 10 9 10 10 10 9 7 5 4 3 3 2 2 2 2 2 1 1 1 1 1 1 1
12 12 12 11 11 11 10 10 10 10 11 11 11 12 12 11 11 11 11 10 9 10 10 11 12 12 12 11 11 11 10 10 9 9 9 8 8 8 7 5 4 6 9 10 10 9 9 9 10 10 10 9 6 4 4 4 3 3 2 2 2 1 1 1 1 1 2 2 2
13 13 12 11 11 11 11 10 10 11 11 11 11 11 11 11 11 11 11 10 10 10 10 10 10 10 10 10 11 11 11 10 9 8 8 7 7 7 6 4 3 5 8 10 9 9 9 10 10 10 10 8 5 4 3 4 3 3 3 2 2 1 1 2 2 2 2 2 2
12 13 13 12 12 11 11 11 11 11 11 11 11 11 11 10 10 10 10 11 11 11 10 10 10 10 10 10 10 10 10 9 9 8 7 7 6 6 5 4 3 5 8 9 9 9 10 10 11 11 9 6 4 3 3 4 3 3 2 2 1 1 2 2 2 3 2 2 2
11 12 12 12 12 11 11 11 11 11 11 11 11 11 10 10 10 9 9 10 10 10 10 9 9 9 10 9 9 8 8 8 8 7 7 6 5 5 4 4 3 4 7 10 10 10 10 11 11 10 9 6 4 3 3 3 3 2 1 1 0 2 2 3 3 3 2 2 2
10 11 11 12 11 11 11 11 11 11 11 11 10 10 9 9 8 8 8 8 9 9 9 9 9 9 9 9 8 8 7 7 7 7 6 5 5 5 4 4 3 3 5 8 9 10 10 11 11 10 8 5 4 4 3 3 2 1 1 0 1 2 3 2 2 2 2 3 4
9 10 10 11 11 11 11 10 10 11 10 10 10 9 9 8 7 6 7 7 7 8 9 9 9 8 8 8 7 7 6 5 5 5 5 5 5 5 5 4 3 2 3 6 8 9 9 10 10 10 8 6 4 4 3 3 2 1 0 0 1 2 2 2 2 2 3 4 6
9 9 9 10 10 10 10 10 9 9 9 9 9 9 8 7 7 7 7 6 7 7 8 8 8 8 7 7 6 6 5 4 3 3 4 4 5 6 6 4 2 1 1 4 7 8 8 8 9 9 8 6 4 4 3 3 2 1 0 1 1 2 2 3 2 2 3 4 5
8 9 9 9 9 9 9 9 9 8 8 8 9 8 8 7 7 7 6 6 6 6 7 7 7 6 6 6 5 5 4 4 3 2 2 2 3 3 3 2 2 1 1 1 4 6 7 7 8 9 9 6 4 3 3 3 2 1 0 1 1 1 2 3 3 3 3 3 4
Wind_Direction
189 184 180 178 181 184 188 192 192 190 189 190 191 192 192 188 184 180 177 175 182 190 198 201 197 185 169 164 168 168 165 160 158 157 156 154 153 152 149 141 136 135 135 138 139 140 139 136 131 128 128 130 128 127 131 143 147 136 121 112 116 118 119 118 118 120 124 133 148
188 182 179 178 180 182 185 189 191 191 191 192 193 192 191 188 184 179 173 169 170 171 174 180 182 172 162 162 164 162 156 150 148 145 141 136 135 135 136 137 138 138 139 140 141 142 143 140 135 132 130 128 126 129 138 154 145 127 115 111 114 114 114 114 119 124 129 137 145
186 182 179 179 181 183 185 189 191 192 192 192 192 190 187 185 181 177 173 169 163 157 153 153 153 147 143 148 150 146 139 136 133 127 120 115 116 120 127 135 137 139 141 141 142 144 146 147 141 137 134 133 135 139 144 149 131 118 113 113 113 111 109 109 116 120 125 133 138
183 181 180 182 184 186 188 190 192 192 192 190 186 184 182 180 175 171 166 163 159 155 150 145 139 134 133 138 137 131 126 126 123 119 115 113 115 120 126 132 137 140 141 141 141 143 145 146 141 135 134 135 139 143 143 135 115 107 106 110 107 107 108 109 114 120 125 128 125
184 184 185 187 189 191 192 193 192 192 191 186 179 178 178 174 169 163 160 162 168 162 151 140 134 133 134 137 134 129 125 125 126 126 124 122 121 122 125 130 136 138 139 140 140 141 141 138 130 127 129 134 138 139 133 121 109 103 98 92 93 100 108 113 118 123 124 121 98
187 189 190 191 193 195 197 197 194 192 188 179 174 175 176 174 170 167 166 168 168 156 143 134 131 132 135 137 134 130 128 129 130 129 127 124 123 123 126 130 131 131 133 136 136 136 135 131 127 126 128 128 124 121 119 114 110 106 101 91 88 96 108 120 126 126 117 105 87
187 190 192 194 195 197 199 199 194 187 180 173 173 175 176 175 171 169 166 160 157 151 144 137 135 137 140 140 137 135 133 131 126 122 120 120 122 125 127 128 127 128 131 133 131 131 131 132 130 130 128 122 116 113 113 113 112 110 108 104 98 98 108 123 127 123 113 105 100
188 191 194 195 196 198 199 196 186 179 175 175 176 177 175 172 167 163 157 150 154 156 153 145 144 145 146 145 142 139 136 130 123 119 118 120 124 128 130 131 133 136 138 137 133 132 132 132 130 129 126 120 115 113 112 112 112 112 113 114 105 94 98 116 118 115 114 115 117
188 193 195 196 196 196 194 185 174 171 173 177 175 173 170 166 161 157 153 152 157 157 153 145 145 146 146 145 143 140 135 130 126 125 126 129 133 136 138 140 144 146 147 146 141 136 133 129 126 123 121 118 115 112 111 110 112 115 117 119 115 106 97 97 104 110 114 118 129
187 191 193 193 192 186 177 164 162 163 166 169 167 164 162 159 156 155 154 154 154 152 149 146 145 145 145 145 142 138 134 131 131 134 137 141 145 147 149 151 152 153 153 153 145 138 132 127 125 121 117 112 110 109 109 111 116 120 124 128 129 124 115 100 102 109 117 126 144
185 186 186 185 177 167 156 148 151 154 156 159 158 156 154 154 152 152 151 149 149 150 149 147 146 146 146 145 142 139 137 136 139 143 146 150 153 155 156 157 157 155 154 153 146 139 133 129 124 118 113 106 105 107 111 116 121 124 127 130 130 128 124 112 106 111 123 136 154
182 178 174 168 159 152 147 145 146 148 151 154 153 152 150 149 149 148 147 145 147 148 148 145 146 147 147 144 143 142 142 143 146 148 151 155 156 157 158 159 157 155 152 149 145 138 132 128 122 115 110 107 108 114 122 126 125 125 125 125 123 124 124 121 111 110 118 130 147
170 164 158 152 148 146 144 143 144 148 151 152 150 148 146 145 145 145 144 144 145 144 143 143 144 145 145 144 144 145 146 147 149 151 153 155 155 156 156 157 155 152 148 145 140 133 127 123 119 116 114 115 118 127 134 136 131 129 128 126 123 125 130 130 124 118 115 117 130
150 148 146 144 144 144 144 143 145 148 149 147 145 142 140 140 142 142 141 141 141 140 139 140 140 142 143 144 145 147 149 149 150 151 152 153 154 154 154 154 152 148 143 137 129 123 119 117 117 118 120 124 128 134 137 137 133 133 133 136 137 140 140 138 133 126 120 116 127
135 138 140 140 142 142 142 142 144 144 143 141 138 136 135 136 138 137 136 135 136 135 135 137 138 140 142 145 146 148 148 149 149 149 149 150 151 151 151 150 147 142 135 126 117 114 113 115 119 123 128 133 134 133 130 125 125 128 133 139 142 142 139 134 129 127 128 135 160
128 132 135 138 140 140 141 141 140 138 137 135 133 133 134 135 135 133 132 132 131 132 134 137 138 140 142 145 146 147 147 147 147 146 146 147 148 148 148 146 141 133 124 115 109 108 110 116 122 129 133 135 133 125 116 109 109 111 116 120 119 118 117 119 125 134 149 166 190
125 129 134 137 138 138 137 137 135 134 133 132 133 134 135 135 134 133 132 132 133 135 138 140 140 141 142 144 146 147 148 148 146 145 144 145 146 146 144 139 131 122 115 110 109 110 112 116 121 126 128 125 118 110 102 96 95 94 92 86 84 86 94 110 133 152 169 185 204
124 129 133 136 135 134 134 133 131 131 132 132 133 134 135 135 135 133 133 134 137 139 141 142 142 142 143 145 148 150 151 150 148 146 145 144 143 139 134 126 119 113 110 109 111 113 114 114 113 111 107 103 98 93 90 88 86 84 81 78 78 84 96 122 149 163 174 190 207
126 129 132 135 133 132 130 129 128 130 131 132 133 134 134 135 134 134 134 137 140 141 142 142 142 143 145 148 151 152 152 150 147 144 140 137 133 127 122 117 113 111 109 109 109 110 109 106 102 98 94 91 88 87 86 87 86 85 85 87 92 101 115 134 154 167 181 194 206
128 132 135 135 131 129 128 128 129 131 131 132 133 133 133 134 133 134 136 139 140 141 142 141 141 143 145 148 148 148 147 145 141 136 131 127 122 118 116 114 111 109 106 104 103 101 99 96 95 94 94 95 95 95 95 95 95 94 94 96 96 97 95 97 113 158 194 210 217
130 134 135 133 130 128 128 129 131 131 131 131 133 132 131 131 132 133 135 136 136 135 135 135 136 138 140 142 141 139 137 134 131 127 123 120 118 116 113 111 107 103 100 97 95 94 94 94 95 97 98 100 103 105 106 106 105 103 99 92 80 68 58 52 51 19 239 239 235
132 133 132 130 129 129 129 131 132 131 131 131 130 128 127 126 127 127 126 125 124 123 123 124 127 130 132 132 131 130 128 125 123 120 118 116 114 111 107 103 101 99 97 95 95 95 95 96 98 100 102 104 106 108 109 109 107 100 89 75 64 53 41 27 2 285 255 250 247
127 126 125 126 127 128 130 131 131 130 128 127 124 122 121 121 119 117 116 115 114 114 114 114 117 120 123 124 125 124 122 119 115 112 110 109 107 104 100 97 98 98 99 99 101 101 101 99 99 100 102 103 103 101 98 96 91 84 74 65 55 43 24 353 312 281 265 258 256
106 109 114 118 123 125 127 128 127 125 123 121 119 119 118 117 115 113 112 112 112 112 112 112 112 114 116 117 118 117 116 114 110 107 104 103 101 99 97 96 98 100 103 107 112 113 111 105 101 98 96 95 92 88 83 79 78 75 71 64 53 36 5 328 304 291 283 279 273
89 94 100 107 114 117 119 119 119 118 117 116 116 116 116 116 115 113 112 112 112 112 112 111 111 111 111 112 112 111 110 110 109 107 104 102 100 98 98 99 102 106 112 119 121 118 114 109 106 101 96 91 87 83 79 75 74 73 70 65 53 32 355 324 312 306 304 305 304
87 90 94 99 102 104 106 108 110 111 112 113 114 115 115 114 113 112 112 112 112 112 112 113 113 113 112 111 110 108 106 106 108 108 108 106 104 103 103 107 111 116 122 127 123 118 112 107 103 99 95 89 86 82 77 72 69 68 68 66 59 34 342 323 319 319 321 326 324
84 87 89 91 92 95 97 101 104 107 109 111 112 112 112 112 111 111 111 112 113 114 114 114 115 115 113 110 108 107 106 106 108 109 110 110 110 110 112 115 118 122 126 127 121 115 108 102 97 93 89 86 83 81 78 74 71 72 76 84 99 109 305 313 318 321 325 332 334
78 82 85 86 88 91 94 97 101 104 107 108 109 109 109 109 109 111 112 114 116 116 115 115 115 113 110 106 106 107 108 108 109 109 110 110 111 112 113 114 115 119 121 121 115 110 105 100 96 93 91 89 86 85 87 89 90 96 106 125 142 304 320 321 321 325 331 338 343
75 78 81 84 86 88 91 95 98 101 102 103 104 105 106 107 110 112 114 116 116 116 115 114 111 108 105 105 106 106 106 106 107 107 107 106 104 103 102 101 102 108 112 113 110 107 106 104 103 101 99 97 96 95 97 102 106 107 99 74 29 9 355 345 337 339 345 352 2
75 77 79 82 83 85 86 89 92 95 97 99 102 104 106 108 110 112 113 113 112 111 110 109 107 106 106 106 105 104 102 102 101 101 101 100 98 95 93 92 94 101 107 109 108 107 107 107 106 105 104 103 103 103 103 105 99 86 68 46 23 9 359 349 354 1 6 13 21
76 77 79 80 80 81 81 82 86 89 93 97 101 103 105 106 107 107 107 106 105 105 104 104 104 105 105 104 103 102 101 99 98 97 98 98 98 95 92 90 94 102 108 111 110 108 107 106 106 106 106 106 106 105 102 96 88 80 69 52 33 18 12 15 22 24 26 29 33
78 78 78 79 79 79 79 80 83 88 91 95 97 98 99 99 99 98 98 100 101 103 104 104 105 104 103 101 100 100 100 99 99 99 100 100 100 97 95 93 97 106 113 114 112 111 110 110 110 109 107 105 103 100 96 92 89 86 80 70 51 37 28 24 22 19 19 23 51
81 80 79 80 80 80 80 81 84 87 90 92 93 94 94 95 94 95 96 99 102 105 106 107 107 107 106 105 103 102 101 101 102 103 103 103 101 99 97 94 99 110 117 117 116 117 118 119 117 113 108 104 102 99 97 97 98 96 88 74 58 42 27 14 355 323 278 242 220
87 85 84 83 84 84 85 85 86 88 89 90 91 92 94 96 97 99 101 104 105 106 107 108 109 109 109 109 108 108 107 106 105 105 104 103 101 100 98 96 101 119 125 124 125 127 128 127 121 115 110 106 104 104 106 106 102 95 86 72 55 31 8 343 294 258 240 230 221
94 93 92 91 91 91 91 91 91 91 91 91 92 94 95 98 101 104 107 109 108 107 106 107 107 108 108 107 108 109 110 110 108 106 105 104 103 104 106 107 117 133 138 135 136 137 136 131 123 118 114 111 110 109 108 103 96 90 83 73 51 13 334 300 270 251 237 226 217
99 100 100 100 100 100 100 100 100 99 98 99 99 100 100 101 103 106 109 111 110 109 108 107 107 107 106 106 106 108 110 111 110 110 109 110 112 115 121 129 144 155 153 146 147 145 141 135 128 123 120 116 110 101 96 92 90 88 83 76 51 319 289 277 267 259 249 235 219
101 104 106 107 108 108 109 109 108 108 107 107 106 106 105 104 105 107 109 111 110 109 109 108 108 107 107 107 107 107 109 111 114 117 120 124 127 132 140 152 176 179 169 158 157 153 147 140 133 127 122 113 105 98 94 91 90 88 84 78 277 269 268 267 269 272 275 273 254
103 106 109 110 111 112 112 112 112 111 111 110 108 106 105 105 104 106 108 110 110 110 109 108 106 106 106 107 107 107 110 114 120 126 131 138 143 150 157 167 193 204 190 170 160 153 145 138 131 126 122 114 113 111 109 106 104 99 96 262 275 275 275 274 282 295 305 309 317
103 105 107 109 110 110 110 109 109 110 110 109 107 104 102 101 101 102 104 105 107 108 108 107 105 105 105 107 107 108 111 115 125 134 141 151 162 168 171 172 186 213 206 173 154 145 139 134 130 127 125 120 124 127 128 126 122 121 128 290 301 302 302 303 313 323 325 322 335
98 99 101 102 104 105 105 103 104 105 106 106 105 103 101 100 100 100 100 99 101 102 103 103 103 103 105 108 107 107 108 111 119 134 148 160 174 178 175 164 162 178 196 162 145 141 139 137 134 132 130 126 133 136 135 132 125 117 72 328 332 330 327 326 333 338 335 327 335
90 92 94 96 97 99 99 98 97 97 98 99 100 100 100 100 99 99 99 97 96 96 96 97 98 99 101 104 103 104 105 101 89 85 100 130 156 163 157 127 113 70 28 108 142 145 146 145 141 140 139 136 139 138 133 124 115 108 39 312 331 335 335 332 336 337 335 328 325